Location: Medlow Airstrip Trail, Medlow Bath NSW 2780, Australia
(33.6682°S, 150.3233°E)
Time: 07:14:25
(UTC+11:00)

Envisat - Visible Passes

Search period start: 18 October 2019 00:00
Search period end: 28 October 2019 00:00
Orbit: 764 x 766 km, 98.1° (Epoch: 17 October)

Date Brightness Start Highest point End Pass type
(mag) Time Alt. Az. Time Alt. Az. Time Alt. Az.
18 Oct 5.8 21:02:45 10° SSW 21:06:16 19° WSW 21:09:47 10° WNW visible
19 Oct 4.3 20:24:58 10° S 20:29:49 43° WSW 20:34:37 10° NW visible
20 Oct 3.0 19:48:00 10° SSE 19:53:10 80° ENE 19:58:16 10° N visible
20 Oct 6.4 21:30:51 10° WSW 21:31:26 10° WSW 21:32:01 10° WSW visible
21 Oct 5.4 20:51:04 10° SSW 20:55:07 24° WSW 20:59:09 10° WNW visible
22 Oct 3.8 20:13:35 10° S 20:18:37 56° WSW 20:23:34 10° NNW visible
23 Oct 3.1 19:36:48 10° SSE 19:41:54 61° E 19:46:56 10° N visible
23 Oct 6.2 21:17:55 10° SW 21:20:19 13° WSW 21:22:44 10° W visible
24 Oct 5.0 20:39:30 10° S 20:43:57 30° WSW 20:48:22 10° NW visible
25 Oct 3.3 20:02:15 10° S 20:07:23 72° WSW 20:12:27 10° NNW visible
26 Oct 5.9 21:05:56 10° SSW 21:09:12 17° WSW 21:12:27 10° WNW visible
27 Oct 4.6 20:28:01 10° S 20:32:46 39° WSW 20:37:28 10° NW visible
